Home > Weather > Macau > Past weeks

Flag for Macau Past Weather in Macau, Macau — Yesterday and Last 2 Weeks

Now
90 °F

Scattered clouds.


Feels Like: 105 °F
Forecast: 83 / 86 °F
Wind: 15 mph from South

Location: Taipa

Current Time: Jul 2, 2016 at 3:32:13 PM

Latest Report: Jul 2, 2016 at 3:00 PM


Visibility: N/A

Pressure: 29.74 "Hg

Humidity: 71%

Dew Point: 79 °F

Location of MacauLocation

Past Weather in Macau — Graph

°F

Macau Temperature Yesterday

Maximum temperature yesterday: 90 °F (at 10:30 AM)
Minimum temperature yesterday: 81 °F (at 6:46 PM)
Average temperature yesterday: 86 °F

High & Low Weather Summary for the Past Weeks

 TemperatureHumidityPressure
High91 °F (Jun 24, 2:00 PM)100% (Jun 28, 8:30 AM)29.86 "Hg (Jun 28, 8:30 AM)
Low79 °F (Jun 28, 8:30 AM)63% (Jun 24, 1:30 PM)29.65 "Hg (Jun 28, 3:00 AM)
Average86 °F81%29.78 "Hg
* Reported Jun 17 2:00 PM — Jul 2 2:30 PM, Macau, Weather by CustomWeather, © 2016

Note: Actual official high and low records may vary slightly from our data, if they occured in-between our weather recording intervals... More about our weather records

Advertising

Macau Weather History for the Previous 24 Hours

Scroll right to see more
 ConditionsComfort  
Time TempWeatherWind HumidityBarometerVisibility
2:30 PM
Sat, Jul 2
90 °FScattered clouds.15 mph71%29.74 "HgN/A
2:00 PM90 °FPassing clouds.15 mph75%29.77 "HgN/A
1:30 PM90 °FPassing clouds.15 mph75%29.77 "HgN/A
1:00 PM90 °FPassing clouds.16 mph75%29.80 "HgN/A
12:30 PM90 °FScattered clouds.16 mph75%29.80 "HgN/A
12:00 PM88 °FScattered clouds.16 mph79%29.80 "HgN/A
11:30 AM88 °FScattered clouds.16 mph75%29.80 "HgN/A
11:00 AM88 °FScattered clouds.17 mph79%29.80 "HgN/A
10:30 AM88 °FScattered clouds.16 mph79%29.80 "HgN/A
10:00 AM86 °FScattered clouds.15 mph84%29.80 "HgN/A
9:30 AM86 °FSprinkles. Scattered clouds.15 mph84%29.80 "Hg5 mi
9:00 AM86 °FScattered clouds.15 mph79%29.80 "HgN/A
8:30 AM86 °FScattered clouds.15 mph84%29.80 "HgN/A
8:00 AM86 °FScattered clouds.14 mph79%29.80 "HgN/A
7:30 AM86 °FScattered clouds.13 mph79%29.77 "HgN/A
7:00 AM84 °FScattered clouds.15 mph84%29.77 "HgN/A
6:30 AM84 °FScattered clouds.10 mph84%29.77 "HgN/A
6:00 AM84 °FScattered clouds.10 mph84%29.77 "HgN/A
5:30 AM82 °FSprinkles. Passing clouds.13 mph84%29.77 "Hg6 mi
5:00 AM84 °FPassing clouds.14 mph84%29.77 "HgN/A
4:30 AM84 °FPassing clouds.20 mph84%29.74 "HgN/A
4:00 AM84 °FPassing clouds.18 mph84%29.74 "HgN/A
3:30 AM84 °FPassing clouds.16 mph89%29.74 "HgN/A
3:00 AM84 °FPassing clouds.16 mph89%29.74 "HgN/A
2:30 AM84 °FPassing clouds.14 mph89%29.74 "HgN/A
2:00 AM84 °FThunderstorms. Passing clouds.14 mph89%29.74 "HgN/A
1:30 AM84 °FPassing clouds.13 mph84%29.77 "HgN/A
1:00 AM84 °FPassing clouds.14 mph84%29.77 "HgN/A
12:30 AM84 °FPassing clouds.14 mph84%29.77 "HgN/A
12:00 AM84 °FPassing clouds.14 mph89%29.77 "HgN/A
11:30 PM
Fri, Jul 1
86 °FPassing clouds.15 mph79%29.77 "HgN/A
11:00 PM86 °FPassing clouds.16 mph79%29.77 "HgN/A
10:30 PM84 °FPassing clouds.15 mph84%29.77 "HgN/A
10:00 PM84 °FPassing clouds.14 mph84%29.77 "HgN/A
9:30 PM84 °FPassing clouds.13 mph89%29.77 "HgN/A
9:00 PM84 °FPassing clouds.13 mph89%29.77 "HgN/A
8:30 PM84 °FPassing clouds.14 mph89%29.77 "HgN/A
8:00 PM84 °FPassing clouds.15 mph84%29.74 "HgN/A
7:30 PM84 °FPassing clouds.12 mph89%29.74 "HgN/A
7:00 PM82 °FSprinkles. Scattered clouds.7 mph89%29.74 "Hg4 mi
6:46 PM81 °FSprinkles. Scattered clouds.10 mph94%29.74 "Hg5 mi
6:30 PM82 °FSprinkles. Scattered clouds.12 mph89%29.74 "Hg2 mi
6:00 PM86 °FScattered clouds.16 mph79%29.71 "HgN/A
5:30 PM88 °FScattered clouds.18 mph75%29.71 "HgN/A
5:00 PM88 °FScattered clouds.16 mph79%29.71 "HgN/A
4:30 PM88 °FScattered clouds.16 mph75%29.71 "HgN/A
4:00 PM88 °FScattered clouds.16 mph79%29.74 "HgN/A
3:30 PM90 °FScattered clouds.16 mph75%29.74 "HgN/A
3:00 PM90 °FScattered clouds.15 mph75%29.74 "HgN/A
Weather by CustomWeather, © 2016

See weather overviewHow to use our weather pages